EW3286 Weather Reports


Display with metric or nautical units.
time (UTC)temp
F
wind
direction
speed
MPH
gust
MPH
rain 1hr
in
rain 24hr
in
rain mn
in
humidity
%
barometer
mb
20260505163017 46 202 0.0 0.0 0.00 0.00 0.00 48 1012.4
20260505161514 46 232 0.0 0.0 0.00 0.00 0.00 50 1012.3
20260505153007 45 180 0.0 0.0 0.00 0.00 0.00 51 1012.2
20260505151508 45 219 0.0 0.0 0.00 0.00 0.00 52 1012.2
20260505124548 39 250 0.0 0.0 0.00 0.00 0.00 68 1011.2
20260505123038 38 223 0.0 0.0 0.00 0.00 0.00 71 1010.8
20260505121537 36 233 0.0 0.0 0.00 0.00 0.00 76 1010.7
20260505120046 35 273 0.0 0.0 0.00 0.00 0.00 77 1010.6
20260505114531 34 220 0.0 0.0 0.00 0.00 0.00 76 1010.3
20260505113030 34 220 0.0 0.0 0.00 0.00 0.00 75 1010.1
20260505111524 34 221 0.0 0.0 0.00 0.00 0.00 73 1009.9
20260505101517 35 204 0.0 0.0 0.00 0.00 0.00 72 1009.2
20260505100015 35 215 0.0 0.0 0.00 0.00 0.00 71 1009.2
20260505094513 36 215 0.0 0.0 0.00 0.00 0.00 68 1009.3
20260505093010 36 216 0.0 0.0 0.00 0.00 0.00 67 1009.2
20260505091512 37 215 0.0 0.0 0.00 0.00 0.00 66 1009.1
20260505090005 37 223 0.0 0.0 0.00 0.00 0.00 65 1009.0
20260505084508 38 192 0.0 0.0 0.00 0.00 0.00 64 1009.0
20260505083105 38 193 0.0 0.0 0.00 0.00 0.00 63 1009.0
20260505081559 39 192 0.0 0.0 0.00 0.00 0.00 61 1008.8
20260505080112 40 244 0.0 0.0 0.00 0.00 0.00 61 1008.8
20260505074556 40 253 0.0 0.0 0.00 0.00 0.00 61 1008.7
20260505073100 39 235 0.0 0.0 0.00 0.00 0.00 62 1008.5
20260505071553 39 247 0.0 0.0 0.00 0.00 0.00 62 1008.4
20260505070052 38 242 0.0 0.0 0.00 0.00 0.00 63 1008.4
20260505064558 38 229 0.0 0.0 0.00 0.00 0.00 63 1008.2
20260505063054 38 229 0.0 0.0 0.00 0.00 0.00 63 1008.2
20260505061551 39 219 0.0 0.0 0.00 0.00 0.00 61 1008.2
20260505060045 39 219 0.0 0.0 0.00 0.00 0.00 61 1008.4
20260505054545 39 234 0.0 0.0 0.00 0.00 0.00 61 1008.3
20260505053106 39 237 0.0 0.0 0.00 0.00 0.00 61 1008.2
20260505051538 40 240 0.0 0.0 0.00 0.00 0.00 61 1008.1
20260505041525 44 238 0.0 0.0 0.00 0.00 0.00 54 1008.0
20260505040023 44 229 0.0 0.0 0.00 0.00 0.00 54 1008.1
20260505034525 45 223 0.0 0.0 0.00 0.00 0.00 53 1008.0
20260505033017 46 223 0.0 0.0 0.00 0.00 0.00 52 1007.9
20260505031516 46 221 0.0 0.0 0.00 0.00 0.00 51 1008.0
20260505030012 47 217 0.0 0.0 0.00 0.00 0.00 49 1007.8
20260505024510 47 227 0.0 0.0 0.00 0.00 0.00 48 1007.6
20260505023006 48 203 0.0 0.0 0.00 0.00 0.00 47 1007.4
20260505021504 49 207 0.0 0.0 0.00 0.00 0.00 46 1007.2
20260505020002 49 205 0.0 0.0 0.00 0.00 0.00 45 1006.9
20260505014601 50 219 0.0 0.0 0.00 0.00 0.00 44 1006.8
20260505013101 50 209 0.0 0.0 0.00 0.00 0.00 44 1006.6
20260505011611 50 229 0.0 0.0 0.00 0.00 0.00 44 1006.5
20260505010054 51 211 0.0 0.0 0.00 0.00 0.00 43 1006.3
20260505004555 51 230 0.0 0.0 0.00 0.00 0.00 43 1006.2
20260505003053 51 209 0.0 0.0 0.00 0.00 0.00 44 1006.0
20260505001558 51 209 0.0 0.0 0.00 0.00 0.00 44 1005.8
20260505000058 52 229 0.0 0.0 0.00 0.00 0.00 44 1005.6
20260504234543 53 191 0.0 0.0 0.00 0.00 0.00 42 1005.3
20260504233057 54 210 0.0 0.0 0.00 0.00 0.00 43 1005.1
20260504231539 55 210 0.0 0.0 0.00 0.00 0.00 41 1004.9
20260504230037 55 232 0.0 0.0 0.00 0.00 0.00 41 1004.6
20260504224541 55 188 0.0 0.0 0.00 0.00 0.00 41 1004.5
20260504223036 55 215 0.0 0.0 0.00 0.00 0.00 42 1004.5
20260504221534 55 232 0.0 0.0 0.00 0.00 0.00 39 1004.4
20260504220034 56 224 0.0 0.0 0.00 0.00 0.00 38 1004.3
20260504214531 57 221 0.0 0.0 0.00 0.00 0.00 37 1004.0
20260504213033 57 209 0.0 0.0 0.00 0.00 0.00 38 1003.7
20260504211528 58 202 0.0 0.0 0.00 0.00 0.00 36 1003.7
20260504210127 58 201 0.0 0.0 0.00 0.00 0.00 36 1003.6
20260504204526 60 198 0.0 0.0 0.00 0.00 0.00 37 1003.3
20260504203023 60 228 0.0 0.0 0.00 0.00 0.00 37 1003.3
20260504201519 61 168 0.0 0.0 0.00 0.00 0.00 36 1003.2
20260504200014 61 193 0.0 0.0 0.00 0.00 0.00 34 1003.1
20260504194511 61 217 0.0 0.0 0.00 0.00 0.00 33 1003.1
20260504193008 61 220 0.0 0.0 0.00 0.00 0.00 32 1002.8
20260504191507 63 218 0.0 0.0 0.00 0.00 0.00 34 1002.7
20260504190002 63 205 0.0 0.0 0.00 0.00 0.00 34 1002.6
20260504184600 62 258 0.0 0.0 0.00 0.00 0.00 36 1002.6
20260504183100 62 202 0.0 0.0 0.00 0.00 0.00 33 1002.5
20260504181601 62 216 0.0 0.0 0.00 0.00 0.00 34 1002.3
20260504180058 62 253 0.0 0.0 0.00 0.00 0.00 34 1002.0
20260504174556 63 252 0.0 0.0 0.00 0.00 0.00 33 1001.7
20260504173054 63 226 0.0 0.0 0.00 0.00 0.00 36 1001.8
20260504171554 62 199 0.0 0.0 0.00 0.00 0.00 36 1001.6